Weather reports worldwide

Advertisment
Messina, Italy (16420): temperature & dewpoint: 10.09.2019 17:00:00 - 16.09.2019 17:00:00 (CEST)Messina, Italy (16420): wind speed: 10.09.2019 17:00:00 - 16.09.2019 17:00:00 (CEST)Messina, Italy (16420): wind direction: 10.09.2019 17:00:00 - 16.09.2019 17:00:00 (CEST)Messina, Italy (16420): reduced air pressure: 10.09.2019 17:00:00 - 16.09.2019 17:00:00 (CEST)Messina, Italy (16420): visibility: 10.09.2019 17:00:00 - 16.09.2019 17:00:00 (CEST)Messina, Italy (16420): sunshine duration: 10.09.2019 17:00:00 - 16.09.2019 17:00:00 (CEST)
Date & Time tt [°C] td [°C] ff [km/h] ff [kn] dd ppp [hPa] vv [km] sd [min]
16.09.2019 17:00:00 27,4 21,4 11 6 ENE 1018,2 20 60
16.09.2019 16:00:00 28,0 20,0 8 4 SE 1018,2 20 60
16.09.2019 15:00:00 28,2 17,1 9 5 S 1018,5 20 60
16.09.2019 14:00:00 28,2 18,0 11 6 S 1019,2 20 60
16.09.2019 13:00:00 28,0 16,0 9 5 S 1019,8 20 60
16.09.2019 12:00:00 27,8 16,4 9 5 S 1020,1 20 60
16.09.2019 11:00:00 27,0 20,6 5 3 E 1020,1 20 60
16.09.2019 10:00:00 26,4 20,7 8 4 ENE 1019,9 15 60
16.09.2019 09:00:00 25,4 19,1 4 2 W 1019,7 15 60
16.09.2019 08:00:00 23,4 18,7 2 1 NNW 1019,5 20 0
16.09.2019 07:00:00 23,0 16,8 4 2 NNW 1019,5 20 -
16.09.2019 06:00:00 23,0 17,7 4 2 NW 1019,5 12 -
16.09.2019 05:00:00 23,0 17,2 4 2 NW 1019,8 12 -
16.09.2019 04:00:00 23,0 18,5 0 0 N 1020,4 12 -
16.09.2019 03:00:00 23,4 20,5 0 0 N 1020,7 12 -
16.09.2019 02:00:00 23,6 20,5 0 0 N 1021,2 12 -
16.09.2019 01:00:00 23,8 20,7 0 0 N 1021,2 12 -
16.09.2019 00:00:00 24,0 20,1 4 2 W 1021,1 12 -
15.09.2019 23:00:00 24,6 19,9 4 2 NNW 1021,1 12 -
15.09.2019 22:00:00 25,0 19,4 4 2 NW 1021,0 12 -
15.09.2019 21:00:00 25,4 18,8 4 2 NNW 1020,8 16 -
15.09.2019 20:00:00 26,0 19,2 5 3 N 1020,8 20 -
15.09.2019 19:00:00 26,4 19,0 9 5 NE 1021,1 20 18
15.09.2019 18:00:00 28,0 19,5 11 6 NE 1021,0 20 60
15.09.2019 17:00:00 28,6 19,2 18 10 NE 1021,1 20 60
15.09.2019 16:00:00 28,6 19,8 21 11 ENE 1021,7 20 60
15.09.2019 15:00:00 28,8 20,3 24 13 ENE 1021,9 20 60
15.09.2019 14:00:00 28,6 19,5 22 12 ENE 1022,4 20 60
15.09.2019 13:00:00 28,6 19,2 16 9 ENE 1022,7 20 60
15.09.2019 12:00:00 28,0 20,5 21 11 ENE 1023,0 20 60
15.09.2019 11:00:00 27,4 21,0 15 8 ENE 1023,1 20 60
15.09.2019 10:00:00 26,6 21,4 9 5 ENE 1023,1 20 60
15.09.2019 09:00:00 25,2 20,0 5 3 E 1022,6 20 60
15.09.2019 08:00:00 23,2 20,0 0 0 N 1022,4 20 12
15.09.2019 07:00:00 23,0 20,0 0 0 N 1022,3 20 -
15.09.2019 06:00:00 23,6 20,0 5 3 NW 1022,3 16 -
15.09.2019 05:00:00 23,8 20,1 5 3 NW 1022,3 16 -
15.09.2019 04:00:00 24,0 20,1 8 4 NW 1022,3 16 -
15.09.2019 03:00:00 24,2 19,7 8 4 NW 1022,5 16 -
15.09.2019 02:00:00 26,4 21,6 8 4 NNW 1022,9 16 -
15.09.2019 01:00:00 24,6 19,9 8 4 N 1022,9 16 -
15.09.2019 00:00:00 24,4 19,7 8 4 NW 1023,2 16 -
14.09.2019 23:00:00 24,4 19,7 4 2 NW 1023,2 16 -
14.09.2019 22:00:00 24,8 19,0 8 4 WNW 1023,0 16 -
14.09.2019 21:00:00 25,0 15,6 4 2 NNW 1022,4 16 -
14.09.2019 20:00:00 25,6 14,7 5 3 NNW 1022,3 16 -
14.09.2019 19:00:00 27,0 13,4 5 3 NNE 1022,3 20 48
14.09.2019 18:00:00 29,0 11,1 15 8 NE 1022,3 20 60
14.09.2019 17:00:00 29,4 8,5 5 3 NNE 1022,8 20 60
14.09.2019 16:00:00 29,4 7,9 8 4 NW 1022,9 20 60
14.09.2019 15:00:00 29,4 8,5 13 7 NW 1023,1 20 60
14.09.2019 14:00:00 29,0 12,0 13 7 NW 1023,3 20 60
14.09.2019 13:00:00 28,4 15,3 13 7 NW 1023,4 20 60
14.09.2019 12:00:00 28,0 16,3 5 3 WNW 1023,4 18 60
14.09.2019 11:00:00 27,0 19,4 8 4 NNW 1023,4 14 60
14.09.2019 10:00:00 27,0 20,8 9 5 NE 1023,3 14 60
14.09.2019 09:00:00 25,6 21,3 5 3 ENE 1023,3 16 60
14.09.2019 08:00:00 24,0 21,5 2 1 - 1023,2 10 18
14.09.2019 07:00:00 23,2 21,5 4 2 W 1023,0 18 0
14.09.2019 06:00:00 23,6 21,3 0 0 N 1023,2 15 -
14.09.2019 05:00:00 24,2 21,1 2 1 SE 1023,2 15 -
14.09.2019 04:00:00 24,4 20,9 4 2 WNW 1023,4 15 -
14.09.2019 03:00:00 24,0 20,5 2 1 W 1023,4 15 -
14.09.2019 02:00:00 24,2 21,5 0 0 N 1023,5 10 -
14.09.2019 01:00:00 24,8 21,3 2 1 ENE 1024,0 15 -
14.09.2019 00:00:00 24,8 21,3 4 2 N 1024,3 15 -
13.09.2019 23:00:00 25,0 21,1 8 4 NW 1024,1 16 -
13.09.2019 22:00:00 25,2 20,7 11 6 W 1023,7 16 -
13.09.2019 21:00:00 26,0 21,2 4 2 N 1023,5 16 -
13.09.2019 20:00:00 26,0 22,3 8 4 NNW 1023,1 16 -
13.09.2019 19:00:00 26,8 20,4 9 5 NNW 1023,1 20 18
13.09.2019 18:00:00 28,0 20,3 11 6 NW 1023,1 20 60
13.09.2019 17:00:00 28,4 18,5 15 8 WNW 1023,1 20 60
13.09.2019 16:00:00 28,2 18,3 13 7 NW 1023,2 20 60
13.09.2019 15:00:00 29,4 16,2 9 5 NW 1023,2 20 60
13.09.2019 14:00:00 29,2 18,7 11 6 NNW 1023,2 20 60
13.09.2019 13:00:00 28,4 18,5 9 5 NNW 1024,0 20 60
13.09.2019 12:00:00 28,0 19,5 11 6 N 1024,2 20 60
13.09.2019 11:00:00 27,2 19,5 13 7 NNW 1024,2 20 60
13.09.2019 10:00:00 27,0 21,1 11 6 NNW 1024,4 20 60
13.09.2019 09:00:00 26,2 21,6 9 5 NW 1024,1 20 42
13.09.2019 08:00:00 25,0 21,7 15 8 NW 1023,6 20 0
13.09.2019 07:00:00 24,8 21,9 11 6 WNW 1023,4 20 0
13.09.2019 06:00:00 24,8 21,9 9 5 NNW 1023,3 20 -
13.09.2019 05:00:00 24,8 21,7 5 3 N 1023,3 20 -
13.09.2019 04:00:00 24,8 21,9 8 4 N 1023,4 20 -
13.09.2019 03:00:00 24,8 21,9 8 4 N 1023,4 20 -
13.09.2019 02:00:00 24,8 22,5 8 4 NNW 1024,0 20 -
13.09.2019 01:00:00 24,8 22,5 5 3 NNW 1024,0 20 -
13.09.2019 00:00:00 25,2 22,5 4 2 NNW 1024,0 20 -
12.09.2019 23:00:00 25,6 22,9 4 2 N 1024,0 20 -
12.09.2019 22:00:00 25,8 22,5 5 3 N 1024,0 20 -
12.09.2019 21:00:00 26,0 22,5 8 4 N 1023,8 20 -
12.09.2019 20:00:00 26,0 21,2 9 5 NW 1023,2 20 -
12.09.2019 19:00:00 26,6 21,1 9 5 NNW 1023,0 20 0
12.09.2019 18:00:00 26,8 20,2 9 5 N 1023,2 20 24
12.09.2019 17:00:00 27,4 19,7 15 8 NNW 1023,2 20 60
12.09.2019 16:00:00 27,4 20,0 15 8 NNW 1023,3 20 60
12.09.2019 15:00:00 29,2 20,4 15 8 NNW 1023,2 20 60
12.09.2019 14:00:00 28,6 19,0 13 7 NW 1023,4 20 60
12.09.2019 13:00:00 28,6 20,1 13 7 NNW 1023,4 20 60
12.09.2019 12:00:00 28,2 19,2 16 9 NW 1023,3 20 60
12.09.2019 11:00:00 27,8 19,6 9 5 N 1023,2 20 60
12.09.2019 10:00:00 27,0 20,1 9 5 NNW 1022,7 20 60
12.09.2019 09:00:00 26,0 20,3 5 3 N 1022,3 20 60
12.09.2019 08:00:00 23,6 20,2 2 1 NE 1021,7 20 18
12.09.2019 07:00:00 23,0 21,1 0 0 N 1021,4 20 -
12.09.2019 06:00:00 23,0 20,9 2 1 N 1020,7 20 -
12.09.2019 05:00:00 23,4 20,9 0 0 N 1020,4 20 -
12.09.2019 04:00:00 23,6 20,9 0 0 N 1020,3 20 -
12.09.2019 03:00:00 24,0 20,1 0 0 N 1020,3 20 -
12.09.2019 02:00:00 24,8 20,5 8 4 NW 1020,0 20 -
12.09.2019 01:00:00 24,8 19,9 9 5 NW 1019,6 20 -
12.09.2019 00:00:00 24,8 20,5 4 2 NNW 1019,3 20 -
11.09.2019 23:00:00 25,0 20,3 11 6 N 1019,2 20 -
11.09.2019 22:00:00 25,2 20,0 4 2 NNW 1019,2 20 -
11.09.2019 21:00:00 25,8 19,7 4 2 NNW 1018,5 20 -
11.09.2019 20:00:00 26,4 19,0 4 2 N 1017,1 20 -
11.09.2019 19:00:00 27,0 18,6 4 2 WNW 1017,3 20 36
11.09.2019 18:00:00 28,6 19,0 8 4 NW 1017,0 20 60
11.09.2019 17:00:00 27,6 19,9 16 9 SSW 1016,3 20 60
11.09.2019 16:00:00 27,8 18,8 16 9 SSW 1016,3 20 60
11.09.2019 15:00:00 27,4 19,2 15 8 SSW 1016,2 20 60
11.09.2019 14:00:00 27,4 18,4 15 8 SSW 1016,1 20 60
11.09.2019 13:00:00 27,0 19,4 11 6 SSE 1016,1 20 60
11.09.2019 12:00:00 27,4 18,4 11 6 SSW 1015,9 20 60
11.09.2019 11:00:00 26,8 19,7 9 5 SSE 1015,9 20 60
11.09.2019 10:00:00 25,8 21,2 9 5 SSE 1015,4 20 60
11.09.2019 09:00:00 23,0 20,5 5 3 SE 1015,0 20 24
11.09.2019 08:00:00 23,0 20,9 0 0 N 1013,4 16 0
11.09.2019 07:00:00 22,6 20,9 5 3 W 1013,3 16 -
11.09.2019 06:00:00 22,6 21,1 5 3 WSW 1012,9 10 -
11.09.2019 05:00:00 22,8 21,1 0 0 N 1012,9 10 -
11.09.2019 04:00:00 23,0 20,3 8 4 NNW 1013,1 10 -
11.09.2019 03:00:00 23,4 20,3 5 3 SW 1013,0 10 -
11.09.2019 02:00:00 23,6 21,1 4 2 SSW 1012,9 10 -
11.09.2019 01:00:00 24,0 21,5 11 6 SSW 1012,7 10 -
11.09.2019 00:00:00 24,4 19,7 9 5 SW 1012,5 10 -
10.09.2019 23:00:00 24,0 21,3 16 9 SSW 1012,3 10 -
10.09.2019 22:00:00 24,4 21,7 15 8 NNE 1012,3 9 -
10.09.2019 21:00:00 24,6 21,9 15 8 SSW 1011,7 10 -
10.09.2019 20:00:00 25,4 20,4 11 6 SW 1011,6 14 -
10.09.2019 19:00:00 26,0 20,1 8 4 SW 1011,2 18 0
10.09.2019 18:00:00 26,4 20,0 13 7 SW 1011,8 18 0
10.09.2019 17:00:00 26,0 20,1 13 7 SW 1012,2 18 0

tt = temperature
td = dewpoint
ff = wind speed
dd = wind direction
ppp = reduced air pressure
vv = visibility
sd = sunshine duration

Next stations